{"data":{"norad_id":38043,"epoch":"2026-09-20T00:42:33.146784Z","epoch_age_seconds":55691,"freshness":"FRESH","line1":"1 38043U 11080D   26263.02955031 -.00000108  00000+0 -20984-4 0  9999","line2":"2 38043  52.0069 136.2132 0000751  75.9496  64.5447 12.62266051680020","mean_motion":12.62266051,"eccentricity":7.51e-5,"inclination_deg":52.0069,"raan_deg":136.2132,"arg_perigee_deg":75.9496,"mean_anomaly_deg":64.5447,"bstar":-2.0984e-5,"rev_number":68002,"period_min":114.08054576602,"perigee_km":1413.0200129536,"apogee_km":1414.190332628,"semimajor_km":7791.7421727908,"source":"CELESTRAK","updated_at":"2026-09-20T09:00:45.040162Z"}}